When you browse on this site, cookies collect data to enhance your experience and personalize the content and advertising you see.
Visit our Privacy Policy to learn more. By continuing to use the site, you agree to this use of cookies and data.
  • In Austria
  • List of Countries
  • For 7 days
  • Water Temperature
  • Satellite Maps
  • Weather Map
  • News
  • Weather Widgets
  • user-avatar
    Login

    Hourly Weather Puplovo

    Today, 20 February, Wednesday

    Time Temperature Precipitation Wind Pressure Humidity
    00:00 0°C° 0.1 mm 4 mps 730 mmHg 92%
    01:00 0°C° 0.1 mm 4 mps 730 mmHg 92%
    02:00 0°C° 0.1 mm 4 mps 730 mmHg 92%
    03:00 0°C° 0.2 mm 4 mps 729 mmHg 92%
    04:00 0°C° 0.2 mm 4 mps 729 mmHg 93%
    05:00 0°C° 0.2 mm 4 mps 729 mmHg 93%
    06:00 0°C° 0.1 mm 4 mps 729 mmHg 92%
    07:00 -1°C° 0.1 mm 4 mps 729 mmHg 92%
    08:00 -1°C° 0.1 mm 4 mps 729 mmHg 92%
    09:00 0°C° 0.1 mm 4 mps 728 mmHg 90%
    10:00 0°C° 0.1 mm 4 mps 728 mmHg 89%
    11:00 0°C° 0.1 mm 4 mps 728 mmHg 88%
    12:00 0°C° 0.2 mm 5 mps 728 mmHg 87%
    13:00 0°C° 0.2 mm 5 mps 727 mmHg 87%
    14:00 0°C° 0.2 mm 5 mps 727 mmHg 86%
    15:00 0°C° 0.5 mm 5 mps 727 mmHg 87%
    16:00 0°C° 0.5 mm 5 mps 727 mmHg 87%
    17:00 0°C° 0.5 mm 4 mps 726 mmHg 88%
    18:00 -1°C° 0.4 mm 5 mps 727 mmHg 84%
    19:00 -2°C° 0.4 mm 5 mps 727 mmHg 81%
    20:00 -5°C° 0.4 mm 5 mps 727 mmHg 77%
    21:00 -5°C° 0.2 mm 5 mps 728 mmHg 79%
    22:00 -5°C° 0.2 mm 6 mps 728 mmHg 82%
    23:00 -6°C° 0.2 mm 6 mps 728 mmHg 84%

    Tomorrow, 21 February, Thursday

    Time Temperature Precipitation Wind Pressure Humidity
    00:00 -6°C° 0.2 mm 6 mps 729 mmHg 83%
    01:00 -6°C° 0.2 mm 6 mps 730 mmHg 82%
    02:00 -8°C° 0.2 mm 6 mps 730 mmHg 80%
    03:00 -8°C° 0.1 mm 6 mps 730 mmHg 79%
    04:00 -8°C° 0.1 mm 6 mps 731 mmHg 77%
    05:00 -8°C° 0.1 mm 7 mps 731 mmHg 75%
    06:00 -9°C° 0.1 mm 7 mps 732 mmHg 75%
    07:00 -9°C° 0.1 mm 7 mps 733 mmHg 76%
    08:00 -11°C° 0.1 mm 7 mps 733 mmHg 76%
    09:00 -9°C° 0.1 mm 7 mps 734 mmHg 75%
    10:00 -9°C° 0.1 mm 7 mps 735 mmHg 74%
    11:00 -9°C° 0.1 mm 7 mps 736 mmHg 72%
    12:00 -9°C° 0.1 mm 7 mps 737 mmHg 71%
    13:00 -9°C° 0.1 mm 6 mps 737 mmHg 70%
    14:00 -9°C° 0.1 mm 6 mps 738 mmHg 69%
    15:00 -10°C° 0 mm 6 mps 739 mmHg 70%
    16:00 -11°C° 0 mm 6 mps 739 mmHg 70%
    17:00 -11°C° 0 mm 5 mps 740 mmHg 71%
    18:00 -12°C° 0 mm 5 mps 741 mmHg 71%
    19:00 -12°C° 0 mm 5 mps 741 mmHg 72%
    20:00 -12°C° 0 mm 5 mps 742 mmHg 72%
    21:00 -13°C° 0 mm 5 mps 743 mmHg 72%
    22:00 -13°C° 0 mm 5 mps 743 mmHg 72%
    23:00 -12°C° 0 mm 4 mps 744 mmHg 72%

    Day after tomorrow, 22 February, Friday

    Time Temperature Precipitation Wind Pressure Humidity
    00:00 -14°C° 0 mm 4 mps 744 mmHg 73%
    01:00 -14°C° 0 mm 4 mps 745 mmHg 74%
    02:00 -14°C° 0 mm 4 mps 745 mmHg 74%
    03:00 -14°C° 0 mm 4 mps 746 mmHg 74%
    04:00 -14°C° 0 mm 5 mps 746 mmHg 75%
    05:00 -14°C° 0 mm 5 mps 747 mmHg 75%
    06:00 -14°C° 0 mm 5 mps 747 mmHg 74%
    07:00 -14°C° 0 mm 5 mps 748 mmHg 73%
    08:00 -14°C° 0 mm 5 mps 749 mmHg 73%
    09:00 -14°C° 0 mm 6 mps 749 mmHg 70%
    10:00 -12°C° 0 mm 6 mps 749 mmHg 67%
    11:00 -12°C° 0 mm 6 mps 749 mmHg 64%
    12:00 -11°C° 0 mm 6 mps 749 mmHg 63%
    13:00 -12°C° 0 mm 7 mps 749 mmHg 62%
    14:00 -12°C° 0 mm 7 mps 750 mmHg 62%
    15:00 -11°C° 0 mm 6 mps 750 mmHg 64%
    16:00 -11°C° 0 mm 6 mps 750 mmHg 67%
    17:00 -11°C° 0 mm 6 mps 751 mmHg 69%
    18:00 -12°C° 0 mm 6 mps 751 mmHg 71%
    19:00 -12°C° 0 mm 5 mps 752 mmHg 73%
    20:00 -12°C° 0 mm 5 mps 752 mmHg 75%
    21:00 -13°C° 0 mm 5 mps 752 mmHg 76%
    22:00 -12°C° 0 mm 4 mps 753 mmHg 76%
    23:00 -14°C° 0 mm 4 mps 753 mmHg 77%

    23 February, Saturday

    Time Temperature Precipitation Wind Pressure Humidity
    00:00 -14°C° 0 mm 4 mps 753 mmHg 79%
    01:00 -14°C° 0 mm 3 mps 754 mmHg 81%
    02:00 -14°C° 0 mm 3 mps 754 mmHg 84%
    03:00 -14°C° 0 mm 3 mps 754 mmHg 85%
    04:00 -15°C° 0 mm 3 mps 754 mmHg 87%
    05:00 -15°C° 0 mm 3 mps 754 mmHg 88%
    06:00 -14°C° 0 mm 2 mps 754 mmHg 89%
    07:00 -14°C° 0 mm 2 mps 754 mmHg 89%
    08:00 -14°C° 0 mm 2 mps 754 mmHg 90%
    09:00 -13°C° 0 mm 2 mps 754 mmHg 84%
    10:00 -12°C° 0 mm 2 mps 754 mmHg 78%
    11:00 -10°C° 0 mm 2 mps 754 mmHg 72%
    12:00 -9°C° 0 mm 2 mps 754 mmHg 69%
    13:00 -9°C° 0 mm 2 mps 753 mmHg 67%
    14:00 -8°C° 0 mm 2 mps 753 mmHg 64%
    15:00 -8°C° 0 mm 2 mps 753 mmHg 66%
    16:00 -7°C° 0 mm 1 mps 752 mmHg 69%
    17:00 -7°C° 0 mm 1 mps 752 mmHg 72%
    18:00 -7°C° 0 mm 1 mps 752 mmHg 73%
    19:00 -7°C° 0 mm 1 mps 752 mmHg 75%
    20:00 -7°C° 0 mm 1 mps 751 mmHg 77%
    21:00 -7°C° 0.1 mm 1 mps 751 mmHg 81%
    22:00 -7°C° 0.1 mm 1 mps 751 mmHg 85%
    23:00 -7°C° 0.1 mm 1 mps 751 mmHg 88%

    24 February, Sunday

    Time Temperature Precipitation Wind Pressure Humidity
    00:00 -7°C° 0 mm 1 mps 751 mmHg 90%
    01:00 -7°C° 0 mm 1 mps 751 mmHg 92%
    02:00 -7°C° 0 mm 1 mps 751 mmHg 93%
    03:00 -7°C° 0 mm 1 mps 752 mmHg 94%
    04:00 -7°C° 0 mm 1 mps 752 mmHg 94%
    05:00 -7°C° 0 mm 1 mps 752 mmHg 94%
    06:00 -7°C° 0 mm 1 mps 752 mmHg 94%
    07:00 -6°C° 0 mm 0 mps 753 mmHg 94%
    08:00 -6°C° 0 mm 0 mps 753 mmHg 94%
    09:00 -5°C° 0 mm 0 mps 753 mmHg 90%
    10:00 -4°C° 0 mm 0 mps 754 mmHg 86%
    11:00 -2°C° 0 mm 1 mps 754 mmHg 82%
    12:00 -2°C° 0 mm 1 mps 754 mmHg 81%
    13:00 -2°C° 0 mm 1 mps 754 mmHg 80%
    14:00 -1°C° 0 mm 1 mps 754 mmHg 79%
    15:00 -1°C° 0 mm 1 mps 754 mmHg 82%
    16:00 -2°C° 0 mm 1 mps 754 mmHg 85%
    17:00 -2°C° 0 mm 1 mps 754 mmHg 89%
    18:00 -2°C° 0 mm 1 mps 754 mmHg 90%
    19:00 -2°C° 0 mm 1 mps 754 mmHg 92%
    20:00 -3°C° 0 mm 1 mps 754 mmHg 93%
    21:00 -3°C° 0 mm 1 mps 754 mmHg 94%
    22:00 -3°C° 0 mm 1 mps 753 mmHg 94%
    23:00 -3°C° 0 mm 1 mps 753 mmHg 95%

    25 February, Monday

    Time Temperature Precipitation Wind Pressure Humidity
    00:00 -4°C° 0 mm 1 mps 753 mmHg 96%
    01:00 -6°C° 0 mm 2 mps 752 mmHg 96%
    02:00 -6°C° 0 mm 2 mps 752 mmHg 97%
    03:00 -6°C° 0 mm 2 mps 751 mmHg 97%
    04:00 -5°C° 0 mm 2 mps 751 mmHg 97%
    05:00 -5°C° 0 mm 2 mps 750 mmHg 96%
    06:00 -5°C° 0.1 mm 2 mps 750 mmHg 97%
    07:00 -4°C° 0.1 mm 2 mps 750 mmHg 97%
    08:00 -4°C° 0.1 mm 2 mps 749 mmHg 97%
    09:00 -3°C° 0.1 mm 2 mps 749 mmHg 96%
    10:00 -2°C° 0.1 mm 2 mps 749 mmHg 95%
    11:00 -1°C° 0.1 mm 3 mps 749 mmHg 94%
    12:00 -1°C° 0 mm 3 mps 749 mmHg 90%
    13:00 0°C° 0 mm 3 mps 749 mmHg 86%
    14:00 0°C° 0 mm 3 mps 748 mmHg 83%
    15:00 -1°C° 0 mm 3 mps 748 mmHg 85%
    16:00 -1°C° 0 mm 2 mps 748 mmHg 86%
    17:00 -2°C° 0 mm 2 mps 748 mmHg 88%
    18:00 -2°C° 0 mm 2 mps 748 mmHg 89%
    19:00 -3°C° 0 mm 2 mps 748 mmHg 89%
    20:00 -4°C° 0 mm 3 mps 748 mmHg 90%
    21:00 -4°C° 0 mm 3 mps 747 mmHg 91%
    22:00 -4°C° 0 mm 3 mps 747 mmHg 93%
    23:00 -4°C° 0 mm 3 mps 747 mmHg 94%
    Show more